Find Starlink 32770

NORAD ID: 62741 Int'l Des: 2025-014 Owner: SPXS Country: US Constellation: starlink operational
LEOCIRCULAR

Current View

Loading 3D Globe...

About Starlink 32770

Starlink 32770 (NORAD 62741) is a starlink constellation satellite (v2 mini) launched Jan 21, 2025 by SPXS of US. It operates in LEO, CIRCULAR orbit with a mass of 730.00 kg.

About Starlink 32770

Description loading...

Upcoming Passes

Passes for default location (London). Set your location on the main map for personalized predictions.

Altitude History

Loading altitude history...

Two-Line Element Set

1 62741U 25014G 26167.12128231 .00025641 00000-0 93782-3 0 9994
2 62741 43.0004 318.2954 0002031 270.9373 89.1245 15.27588212 78311
Epoch: Jun 16, 2026 • Age: 18 hours

Current Status

Altitude 485.0 km
Velocity 7.63 km/s
Sub-Earth Point 32.16°N, 124.16°W
Launch Date Jan 21, 2025
Age 1.3 years
Type internet

Technical Details

Classification Payload
Mass 730.00 kg
Dry Mass 700.00 kg
Total Mass 730.00 kg
Length 0.30 m
Diameter 4.10 m
Span 29.00 m
Shape Box + pan
Manufacturer SPXS
Bus Type Starlink V2M
Phase Status In Orbit
Owner/State SPXS/US

Most Searched